Location: Moscow
(55.7500°N, 37.5830°E)
Time: 12:55:16
(UTC+03:00)

S-56A Canister/Altair - Pass Details

Date: 03 December 2021
Orbit: 633 x 2499 km, 38.9° (Epoch: 17 January)

Event Time Altitude Azimuth Distance (km) Brightness Sun altitude
Rises 00:46:29 0° 216° (SW) 4,838 - -56.0°
Reaches altitude 10° 00:51:50 10° 195° (SSW) 3,410 - -55.8°
Maximum altitude 00:55:48 14° 166° (SSE) 2,758 - -55.7°
Drops below altitude 10° 00:59:10 10° 136° (SE) 2,791 - -55.5°
Sets 01:02:46 0° 111° (ESE) 3,450 - -55.4°
